GW0351 Weather Reports


Display with metric or nautical units.
time (UTC)temp
F
wind
direction
speed
MPH
gust
MPH
rain 1hr
in
rain 24hr
in
rain mn
in
humidity
%
barometer
mb
20260509024248 58 355 0.0 0.0 0.00 0.00 0.00 99 996.1
20260509023746 58 355 0.0 0.0 0.00 0.00 0.00 99 996.1
20260509023243 59 355 0.0 0.0 0.00 0.00 0.00 99 996.1
20260509022739 59 355 0.0 0.0 0.00 0.00 0.00 99 996.1
20260509022237 59 355 0.0 0.0 0.00 0.00 0.00 99 996.4
20260509021733 59 355 0.0 0.0 0.00 0.00 0.00 99 996.1
20260509021231 59 355 0.0 0.0 0.00 0.00 0.00 99 996.1
20260509020728 59 355 0.0 0.0 0.00 0.00 0.00 99 996.1
20260509020225 59 355 0.0 0.0 0.00 0.00 0.00 98 996.1
20260509015723 59 355 0.0 0.0 0.00 0.00 0.00 98 996.4
20260509015222 59 355 0.0 0.0 0.00 0.00 0.00 98 996.4
20260509014718 59 355 0.0 0.0 0.00 0.00 0.00 98 996.4
20260509014215 59 355 0.0 0.0 0.00 0.00 0.00 98 996.8
20260509013711 59 355 0.0 0.0 0.00 0.00 0.00 98 996.4
20260509013207 59 355 0.0 0.0 0.00 0.00 0.00 98 996.4
20260509012704 59 355 0.0 0.0 0.00 0.00 0.00 98 996.8
20260509012200 60 355 0.0 0.0 0.00 0.00 0.00 97 996.4
20260509011658 60 355 0.0 0.0 0.00 0.00 0.00 97 996.4
20260509011155 60 355 0.0 0.0 0.00 0.00 0.00 97 996.4
20260509010653 60 355 0.0 0.0 0.00 0.00 0.00 97 996.1
20260509010149 60 355 0.0 0.0 0.00 0.00 0.00 97 996.4
20260509005647 60 355 0.0 0.0 0.00 0.00 0.00 96 996.4
20260509005143 60 355 0.0 0.0 0.00 0.00 0.00 96 996.4
20260509004639 60 355 0.0 0.0 0.00 0.00 0.00 96 996.4
20260509004136 60 355 0.0 0.0 0.00 0.00 0.00 96 996.8
20260509003635 60 355 0.0 0.0 0.00 0.00 0.00 95 996.8
20260509003132 61 355 0.0 0.0 0.00 0.00 0.00 95 996.4
20260509002629 61 355 0.0 0.0 0.00 0.00 0.00 94 996.8
20260509002126 61 355 0.0 0.0 0.00 0.00 0.00 95 996.4
20260509001624 61 355 0.0 0.0 0.00 0.00 0.00 94 996.8
20260509001119 61 355 0.0 0.0 0.00 0.00 0.00 94 996.4
20260509000618 62 355 0.0 0.0 0.00 0.00 0.00 93 996.8
20260509000114 62 355 0.0 0.0 0.00 0.00 0.00 94 996.8
20260508235612 62 355 0.0 0.0 0.00 0.00 0.00 93 997.2
20260508235108 62 355 0.0 0.0 0.00 0.00 0.00 93 997.2
20260508234606 62 355 0.0 0.0 0.00 0.00 0.00 92 996.8
20260508234102 63 355 0.0 0.0 0.00 0.00 0.00 91 997.2
20260508233601 63 355 0.0 0.0 0.00 0.00 0.00 90 996.8
20260508233058 63 355 0.0 0.0 0.00 0.00 0.00 89 996.8
20260508232555 64 355 0.0 0.0 0.00 0.00 0.00 88 996.8
20260508232052 64 355 0.0 0.0 0.00 0.00 0.00 87 996.8
20260508231550 64 355 0.0 0.0 0.00 0.00 0.00 87 996.8
20260508231046 64 355 0.0 0.0 0.00 0.00 0.00 85 996.8
20260508230543 64 355 0.0 0.0 0.00 0.00 0.00 88 996.8
20260508230040 64 355 0.0 0.0 0.00 0.00 0.00 88 996.4
20260508225537 65 355 0.0 0.0 0.00 0.00 0.00 86 996.1
20260508225033 65 355 0.0 0.0 0.00 0.00 0.00 86 996.1
20260508224532 65 355 0.0 0.0 0.00 0.00 0.00 85 996.1
20260508224029 65 355 0.0 0.0 0.00 0.00 0.00 86 996.1
20260508223527 65 355 0.0 0.0 0.00 0.00 0.00 86 996.1
20260508223023 66 355 0.0 0.0 0.00 0.00 0.00 84 996.1
20260508222521 66 355 0.0 0.0 0.00 0.00 0.00 85 996.4
20260508222017 66 355 0.0 0.0 0.00 0.00 0.00 87 996.1
20260508221514 65 355 0.0 0.0 0.00 0.00 0.00 86 996.4
20260508221010 66 355 0.0 0.0 0.00 0.00 0.00 84 996.4
20260508220507 66 355 0.0 0.0 0.00 0.00 0.00 85 996.4
20260508220003 66 355 0.0 0.0 0.00 0.00 0.00 82 996.4
20260508215500 65 355 0.0 0.0 0.00 0.00 0.00 81 996.4
20260508214956 65 355 0.0 0.0 0.00 0.00 0.00 86 996.4
20260508214454 66 355 0.0 0.0 0.00 0.00 0.00 85 996.4
20260508213950 66 355 0.0 0.0 0.00 0.00 0.00 84 996.4
20260508213448 66 355 0.0 0.0 0.00 0.00 0.00 82 996.4
20260508212942 65 355 0.0 0.0 0.00 0.00 0.00 83 996.4
20260508212440 66 355 0.0 0.0 0.00 0.00 0.00 86 996.4
20260508211935 66 355 0.0 0.0 0.00 0.00 0.00 84 996.1
20260508211431 66 355 0.0 0.0 0.00 0.00 0.00 84 996.4
20260508210929 66 354 0.0 0.0 0.00 0.00 0.00 81 996.1
20260508210425 66 354 0.0 0.0 0.00 0.00 0.00 81 996.8
20260508205921 67 354 0.0 0.0 0.00 0.00 0.00 77 996.4
20260508205419 67 354 0.0 0.0 0.00 0.00 0.00 76 996.8
20260508204915 67 354 0.0 0.0 0.00 0.00 0.00 78 997.2
20260508204413 67 354 0.0 0.0 0.00 0.00 0.00 75 996.8
20260508203908 67 354 0.0 0.0 0.00 0.00 0.00 78 996.4
20260508203404 67 354 0.0 0.0 0.00 0.00 0.00 75 996.8
20260508202900 67 354 0.0 0.0 0.00 0.00 0.00 76 996.8
20260508202357 67 354 0.0 0.0 0.00 0.00 0.00 78 996.4
20260508201855 67 354 0.0 0.0 0.00 0.00 0.00 76 996.8
20260508201351 68 354 0.0 0.0 0.00 0.00 0.00 71 996.8
20260508200848 69 354 0.0 0.0 0.00 0.00 0.00 74 996.4
20260508200345 70 354 0.0 0.0 0.00 0.00 0.00 65 996.8
20260508195840 69 354 0.0 0.0 0.00 0.00 0.00 67 996.4
20260508195337 69 354 0.0 0.0 0.00 0.00 0.00 72 996.4
20260508194833 69 354 0.0 0.0 0.00 0.00 0.00 69 996.4
20260508194331 69 354 0.0 0.0 0.00 0.00 0.00 67 996.8
20260508193827 69 354 0.0 0.0 0.00 0.00 0.00 67 996.8
20260508193324 69 354 0.0 0.0 0.00 0.00 0.00 67 997.2
20260508192820 70 354 0.0 0.0 0.00 0.00 0.00 61 997.2
20260508192318 70 354 0.0 0.0 0.00 0.00 0.00 64 997.2
20260508191815 70 354 0.0 0.0 0.00 0.00 0.00 65 997.2
20260508191312 70 354 0.0 0.0 0.00 0.00 0.00 63 997.5
20260508190809 69 354 0.0 0.0 0.00 0.00 0.00 58 997.2
20260508190306 69 354 0.0 0.0 0.00 0.00 0.00 63 997.2
20260508185802 70 354 0.0 0.0 0.00 0.00 0.00 61 997.5
20260508185259 69 354 0.0 0.0 0.00 0.00 0.00 65 997.5
20260508184756 70 354 0.0 0.0 0.00 0.00 0.00 61 997.5
20260508184254 71 354 0.0 0.0 0.00 0.00 0.00 64 997.2
20260508183750 71 354 0.0 0.0 0.00 0.00 0.00 68 997.5
20260508183247 71 354 0.0 0.0 0.00 0.00 0.00 62 997.5
20260508182743 70 354 0.0 0.0 0.00 0.00 0.00 62 997.9
20260508182239 72 277 0.0 0.0 0.00 0.00 0.00 60 997.9
20260508181735 71 277 0.0 0.0 0.00 0.00 0.00 58 997.9
20260508181232 71 277 0.0 0.0 0.00 0.00 0.00 57 997.9
20260508180729 71 277 0.0 0.0 0.00 0.00 0.00 51 997.9
20260508180226 71 277 0.0 0.0 0.00 0.00 0.00 54 998.2
20260508175722 71 276 0.0 0.0 0.00 0.00 0.00 55 998.2
20260508175219 70 276 0.0 0.0 0.00 0.00 0.00 52 998.2
20260508174717 70 277 0.0 0.0 0.00 0.00 0.00 60 998.2
20260508174214 70 60 0.0 0.0 0.00 0.00 0.00 55 998.6
20260508173710 70 60 0.0 0.0 0.00 0.00 0.00 63 998.6
20260508173206 69 60 0.0 0.0 0.00 0.00 0.00 58 998.6
20260508172704 70 60 0.0 0.0 0.00 0.00 0.00 61 998.2
20260508172200 69 60 0.0 0.0 0.00 0.00 0.00 60 998.6
20260508171657 70 104 0.0 0.0 0.00 0.00 0.00 52 998.6
20260508171153 69 104 0.0 0.0 0.00 0.00 0.00 57 998.6
20260508170650 69 276 2.0 2.0 0.00 0.00 0.00 51 998.9
20260508170148 70 265 2.0 2.0 0.00 0.00 0.00 51 998.9
20260508165645 69 312 1.0 1.0 0.00 0.00 0.00 52 998.9
20260508165142 69 313 0.0 0.0 0.00 0.00 0.00 62 998.9
20260508164638 69 314 0.0 0.0 0.00 0.00 0.00 60 998.9
20260508164135 68 309 0.0 0.0 0.00 0.00 0.00 65 998.9
20260508163633 68 309 0.0 0.0 0.00 0.00 0.00 58 999.2
20260508163130 67 312 0.0 0.0 0.00 0.00 0.00 66 998.9
20260508162626 68 312 0.0 0.0 0.00 0.00 0.00 63 999.2
20260508162124 67 312 0.0 0.0 0.00 0.00 0.00 60 999.6
20260508161620 68 312 0.0 0.0 0.00 0.00 0.00 62 999.6
20260508161118 67 312 0.0 0.0 0.00 0.00 0.00 66 999.6
20260508160616 69 311 0.0 0.0 0.00 0.00 0.00 53 999.9
20260508160113 69 288 0.0 0.0 0.00 0.00 0.00 51 999.6
20260508155610 68 186 0.0 0.0 0.00 0.00 0.00 60 999.9
20260508155107 69 186 0.0 0.0 0.00 0.00 0.00 63 999.6
20260508154603 68 187 0.0 0.0 0.00 0.00 0.00 59 999.9
20260508154100 68 187 0.0 0.0 0.00 0.00 0.00 66 999.9
20260508153557 68 187 0.0 0.0 0.00 0.00 0.00 58 999.6
20260508153054 68 187 0.0 0.0 0.00 0.00 0.00 60 999.9
20260508152551 68 269 0.0 0.0 0.00 0.00 0.00 64 999.9
20260508152046 69 269 0.0 0.0 0.00 0.00 0.00 62 999.9
20260508151543 68 269 0.0 0.0 0.00 0.00 0.00 55 999.9
20260508151040 67 279 0.0 0.0 0.00 0.00 0.00 62 1000.2
20260508150537 67 265 0.0 0.0 0.00 0.00 0.00 57 1000.2
20260508150033 68 265 0.0 0.0 0.00 0.00 0.00 63 999.9
20260508145530 67 265 0.0 0.0 0.00 0.00 0.00 63 999.9
20260508145026 66 268 0.0 0.0 0.00 0.00 0.00 61 1000.6
20260508144523 65 268 0.0 0.0 0.00 0.00 0.00 70 1000.2
20260508144021 65 268 0.0 0.0 0.00 0.00 0.00 68 999.9
20260508143513 65 268 0.0 0.0 0.00 0.00 0.00 75 1000.2
20260508143009 65 268 0.0 0.0 0.00 0.00 0.00 63 1000.2
20260508142506 65 252 0.0 0.0 0.00 0.00 0.00 67 1000.2
20260508142003 64 252 0.0 0.0 0.00 0.00 0.00 77 1000.6
20260508141459 63 258 0.0 0.0 0.00 0.00 0.00 71 1000.6
20260508140957 63 258 0.0 0.0 0.00 0.00 0.00 80 1000.2
20260508140454 62 258 0.0 0.0 0.00 0.00 0.00 85 1000.6
20260508135949 62 258 0.0 0.0 0.00 0.00 0.00 74 1000.2
20260508135446 61 258 0.0 0.0 0.00 0.00 0.00 80 1000.2
20260508134943 61 258 0.0 0.0 0.00 0.00 0.00 86 1000.2
20260508134439 61 258 0.0 0.0 0.00 0.00 0.00 87 1000.2
20260508133936 61 258 0.0 0.0 0.00 0.00 0.00 87 1000.2
20260508133434 60 258 0.0 0.0 0.00 0.00 0.00 81 1000.2
20260508132930 60 258 0.0 0.0 0.00 0.00 0.00 83 1000.6
20260508132428 59 258 0.0 0.0 0.00 0.00 0.00 85 1000.2
20260508131925 59 267 0.0 0.0 0.00 0.00 0.00 87 1000.6
20260508131420 58 288 0.0 0.0 0.00 0.00 0.00 89 1000.2
20260508130917 58 288 0.0 0.0 0.00 0.00 0.00 91 1000.2
20260508130414 57 329 0.0 0.0 0.00 0.00 0.00 90 999.9
20260508125910 57 276 0.0 0.0 0.00 0.00 0.00 92 999.9
20260508125406 56 276 0.0 0.0 0.00 0.00 0.00 93 999.9
20260508124904 56 276 0.0 0.0 0.00 0.00 0.00 94 999.9
20260508124401 55 276 0.0 0.0 0.00 0.00 0.00 96 1000.2
20260508123859 55 277 0.0 0.0 0.00 0.00 0.00 98 1000.2
20260508123357 54 277 0.0 0.0 0.00 0.00 0.00 99 1000.2
20260508122853 54 277 0.0 0.0 0.00 0.00 0.00 99 999.9
20260508122350 54 277 0.0 0.0 0.00 0.00 0.00 99 1000.2
20260508121848 54 277 0.0 0.0 0.00 0.00 0.00 99 999.9
20260508121346 53 277 0.0 0.0 0.00 0.00 0.00 99 999.9
20260508120843 53 277 0.0 0.0 0.00 0.00 0.00 99 999.9
20260508120341 52 277 0.0 0.0 0.00 0.00 0.00 99 999.6
20260508115838 52 277 0.0 0.0 0.00 0.00 0.00 99 999.6
20260508115336 51 277 0.0 0.0 0.00 0.00 0.00 99 999.9
20260508114832 51 277 0.0 0.0 0.00 0.00 0.00 99 999.9
20260508114329 51 277 0.0 0.0 0.00 0.00 0.00 99 999.6
20260508113826 51 277 0.0 0.0 0.00 0.00 0.00 99 999.6
20260508113324 50 277 0.0 0.0 0.00 0.00 0.00 99 999.6
20260508112820 50 277 0.0 0.0 0.00 0.00 0.00 99 999.6
20260508112318 50 277 0.0 0.0 0.00 0.00 0.00 99 999.2
20260508111814 50 277 0.0 0.0 0.00 0.00 0.00 99 998.9
20260508111311 50 277 0.0 0.0 0.00 0.00 0.00 99 999.6
20260508110808 50 277 0.0 0.0 0.00 0.00 0.00 99 998.9
20260508110306 50 277 0.0 0.0 0.00 0.00 0.00 99 998.9
20260508105805 50 277 0.0 0.0 0.00 0.00 0.00 99 998.6
20260508105305 50 277 0.0 0.0 0.00 0.00 0.00 99 998.6
20260508104759 51 277 0.0 0.0 0.00 0.00 0.00 99 998.2
20260508104256 51 277 0.0 0.0 0.00 0.00 0.00 99 998.2
20260508103753 51 277 0.0 0.0 0.00 0.00 0.00 99 998.6
20260508103250 51 277 0.0 0.0 0.00 0.00 0.00 99 998.2
20260508102748 51 277 0.0 0.0 0.00 0.00 0.00 99 997.9
20260508102246 51 277 0.0 0.0 0.00 0.00 0.00 99 997.9
20260508101743 51 277 0.0 0.0 0.00 0.00 0.00 99 997.5
20260508101240 51 277 0.0 0.0 0.00 0.00 0.00 99 997.9
20260508100738 51 277 0.0 0.0 0.00 0.00 0.00 99 997.5
20260508100235 51 277 0.0 0.0 0.00 0.00 0.00 99 997.5
20260508095731 51 277 0.0 0.0 0.00 0.00 0.00 99 997.5
20260508095229 51 277 0.0 0.0 0.00 0.00 0.00 99 997.2
20260508094725 51 277 0.0 0.0 0.00 0.00 0.00 99 997.9
20260508094222 51 277 0.0 0.0 0.00 0.00 0.00 99 997.5
20260508093720 51 277 0.0 0.0 0.00 0.00 0.00 99 997.5
20260508093218 51 277 0.0 0.0 0.00 0.00 0.00 99 997.5
20260508092714 51 277 0.0 0.0 0.00 0.00 0.00 99 997.5
20260508092212 51 277 0.0 0.0 0.00 0.00 0.00 99 997.5
20260508091710 51 277 0.0 0.0 0.00 0.00 0.00 99 997.2
20260508091207 52 277 0.0 0.0 0.00 0.00 0.00 99 997.2
20260508090704 52 277 0.0 0.0 0.00 0.00 0.00 99 997.2
20260508090202 52 277 0.0 0.0 0.00 0.00 0.00 99 997.5
20260508085657 52 277 0.0 0.0 0.00 0.00 0.00 99 997.5
20260508085155 52 277 0.0 0.0 0.00 0.00 0.00 99 997.5
20260508084651 52 277 0.0 0.0 0.00 0.00 0.00 99 997.5
20260508084149 53 277 0.0 0.0 0.00 0.00 0.00 99 997.2
20260508083646 53 277 0.0 0.0 0.00 0.00 0.00 99 997.5
20260508083144 53 277 0.0 0.0 0.00 0.00 0.00 99 997.2
20260508082638 53 277 0.0 0.0 0.00 0.00 0.00 99 997.5
20260508082136 53 277 0.0 0.0 0.00 0.00 0.00 99 997.5
20260508081633 53 277 0.0 0.0 0.00 0.00 0.00 99 997.5
20260508081129 53 277 0.0 0.0 0.00 0.00 0.00 99 997.5
20260508080627 53 277 0.0 0.0 0.00 0.00 0.00 99 997.2
20260508080125 53 277 0.0 0.0 0.00 0.00 0.00 99 997.5
20260508075621 53 277 0.0 0.0 0.00 0.00 0.00 99 997.2
20260508075118 53 277 0.0 0.0 0.00 0.00 0.00 99 997.2
20260508074616 53 277 0.0 0.0 0.00 0.00 0.00 99 996.8
20260508074113 53 277 0.0 0.0 0.00 0.00 0.00 99 996.8
20260508073610 54 277 0.0 0.0 0.00 0.00 0.00 99 997.2
20260508073108 54 277 0.0 0.0 0.00 0.00 0.00 99 997.2
20260508072603 54 277 0.0 0.0 0.00 0.00 0.00 99 997.2
20260508072100 54 277 0.0 0.0 0.00 0.00 0.00 99 997.2
20260508071558 54 277 0.0 0.0 0.00 0.00 0.00 99 997.2
20260508071056 54 277 0.0 0.0 0.00 0.00 0.00 99 997.2
20260508070553 54 277 0.0 0.0 0.00 0.00 0.00 99 997.5
20260508070052 54 277 0.0 0.0 0.00 0.00 0.00 99 997.5
20260508065549 54 277 0.0 0.0 0.00 0.00 0.00 99 997.2
20260508065047 54 277 0.0 0.0 0.00 0.00 0.00 99 997.5
20260508064544 54 277 0.0 0.0 0.00 0.00 0.00 99 997.5
20260508064042 55 277 0.0 0.0 0.00 0.00 0.00 99 997.5
20260508063539 55 277 0.0 0.0 0.00 0.00 0.00 99 997.5
20260508063037 55 277 0.0 0.0 0.00 0.00 0.00 99 997.9
20260508062534 55 277 0.0 0.0 0.00 0.00 0.00 99 997.9
20260508062031 55 277 0.0 0.0 0.00 0.00 0.00 99 997.9
20260508061529 55 277 0.0 0.0 0.00 0.00 0.00 99 998.2
20260508061025 55 277 0.0 0.0 0.00 0.00 0.00 99 997.9
20260508060522 55 277 0.0 0.0 0.00 0.00 0.00 99 997.9
20260508060020 55 277 0.0 0.0 0.00 0.00 0.00 99 997.9
20260508055515 55 277 0.0 0.0 0.00 0.00 0.00 99 997.9
20260508055012 55 277 0.0 0.0 0.00 0.00 0.00 99 997.9
20260508054509 55 277 0.0 0.0 0.00 0.00 0.00 99 997.9
20260508054006 55 277 0.0 0.0 0.00 0.00 0.00 99 997.9
20260508053502 56 277 0.0 0.0 0.00 0.00 0.00 99 997.9
20260508053001 56 277 0.0 0.0 0.00 0.00 0.00 99 997.9
20260508052458 56 277 0.0 0.0 0.00 0.00 0.00 99 997.9
20260508051954 56 277 0.0 0.0 0.00 0.00 0.00 99 997.9
20260508051450 56 277 0.0 0.0 0.00 0.00 0.00 99 997.9
20260508050946 56 277 0.0 0.0 0.00 0.00 0.00 99 997.9
20260508050442 56 277 0.0 0.0 0.00 0.00 0.00 99 997.9
20260508045939 56 277 0.0 0.0 0.00 0.00 0.00 99 997.9
20260508045437 56 277 0.0 0.0 0.00 0.00 0.00 99 997.5
20260508044934 56 277 0.0 0.0 0.00 0.00 0.00 99 997.9
20260508044431 56 277 0.0 0.0 0.00 0.00 0.00 99 997.9
20260508043926 57 277 0.0 0.0 0.00 0.00 0.00 99 997.9
20260508043424 57 277 0.0 0.0 0.00 0.00 0.00 99 997.9
20260508042920 57 277 0.0 0.0 0.00 0.00 0.00 99 997.9
20260508042418 57 277 0.0 0.0 0.00 0.00 0.00 99 997.5
20260508041915 57 277 0.0 0.0 0.00 0.00 0.00 99 997.5
20260508041411 57 277 0.0 0.0 0.00 0.00 0.00 99 997.5
20260508040907 57 277 0.0 0.0 0.00 0.00 0.00 99 997.5
20260508040405 57 277 0.0 0.0 0.00 0.00 0.00 99 997.2
20260508035903 57 277 0.0 0.0 0.00 1.55 1.55 99 997.9
20260508035400 57 277 0.0 0.0 0.00 1.55 1.55 99 997.9
20260508034856 58 277 0.0 0.0 0.00 1.55 1.55 99 997.9
20260508034354 58 277 0.0 0.0 0.00 1.55 1.55 99 997.5
20260508033850 58 277 0.0 0.0 0.00 1.55 1.55 99 997.9
20260508033349 58 277 0.0 0.0 0.00 1.55 1.55 99 997.5
20260508032846 58 277 0.0 0.0 0.00 1.55 1.55 99 997.5
20260508032343 58 277 0.0 0.0 0.00 1.55 1.55 99 997.5
20260508031839 58 277 0.0 0.0 0.00 1.55 1.55 99 997.5
20260508031336 59 277 0.0 0.0 0.00 1.55 1.55 99 997.5
20260508030833 59 277 0.0 0.0 0.00 1.55 1.55 99 997.5
20260508030330 59 277 0.0 0.0 0.00 1.55 1.55 99 997.2
20260508025827 59 277 0.0 0.0 0.00 1.55 1.55 99 997.5
20260508025324 59 277 0.0 0.0 0.00 1.55 1.55 99 997.2
20260508024821 59 277 0.0 0.0 0.00 1.55 1.55 99 997.5